Location: Asheville, NC
(35.6000°N, 82.5500°W)
Time: 16:53:00
(UTC-05:00)

N. Korean satellite - Pass Details

Date: 08 December 2017
Orbit: 458 x 515 km, 97.2° (Epoch: 23 January)

Event Time Altitude Azimuth Distance (km) Brightness Sun altitude
Rises 06:35:08 0° 25° (NNE) 2,628 10.3 -10.5°
Reaches altitude 10° 06:37:30 10° 38° (NE) 1,732 9.6 -10.1°
Maximum altitude 06:40:40 26° 96° (E) 1,025 9.2 -9.5°
Drops below altitude 10° 06:43:47 10° 154° (SSE) 1,699 10.1 -8.9°
Sets 06:46:05 0° 167° (SSE) 2,567 10.8 -8.5°
